When you browse on this site, cookies collect data to enhance your experience and personalize the content and advertising you see.
Visit our Privacy Policy to learn more. By continuing to use the site, you agree to this use of cookies and data.
  • In Italy
  • List of Countries
  • For 7 days
  • Water Temperature
  • Weather Map
  • Weather Widgets
  • user-avatar
    Login

    Hourly Weather Zanzibar

    Today, 17 February, Monday

    Time Temperature Precipitation Wind Pressure Humidity
    00:00 +29°C° 0 mm 4 mps 758 mmHg 82%
    01:00 +28°C° 0 mm 3 mps 758 mmHg 83%
    02:00 +28°C° 0 mm 3 mps 758 mmHg 85%
    03:00 +28°C° 0 mm 2 mps 757 mmHg 87%
    04:00 +28°C° 0 mm 3 mps 758 mmHg 87%
    05:00 +28°C° 0 mm 3 mps 758 mmHg 87%
    06:00 +27°C° 0 mm 3 mps 758 mmHg 88%
    07:00 +29°C° 0 mm 3 mps 759 mmHg 81%
    08:00 +30°C° 0 mm 3 mps 759 mmHg 74%
    09:00 +33°C° 0 mm 3 mps 760 mmHg 67%
    10:00 +34°C° 0 mm 3 mps 759 mmHg 64%
    11:00 +35°C° 0 mm 3 mps 759 mmHg 60%
    12:00 +35°C° 0 mm 3 mps 758 mmHg 57%
    13:00 +35°C° 0 mm 3 mps 757 mmHg 58%
    14:00 +35°C° 0 mm 4 mps 757 mmHg 59%
    15:00 +35°C° 0 mm 4 mps 756 mmHg 60%
    16:00 +34°C° 0 mm 4 mps 756 mmHg 65%
    17:00 +33°C° 0 mm 5 mps 756 mmHg 70%
    18:00 +32°C° 0 mm 5 mps 756 mmHg 75%
    19:00 +30°C° 0 mm 5 mps 756 mmHg 79%
    20:00 +30°C° 0 mm 5 mps 757 mmHg 82%
    21:00 +29°C° 0 mm 4 mps 757 mmHg 85%
    22:00 +29°C° 0 mm 4 mps 758 mmHg 86%
    23:00 +28°C° 0 mm 4 mps 758 mmHg 87%

    Tomorrow, 18 February, Tuesday

    Time Temperature Precipitation Wind Pressure Humidity
    00:00 +28°C° 0 mm 3 mps 758 mmHg 89%
    01:00 +28°C° 0 mm 3 mps 758 mmHg 89%
    02:00 +28°C° 0 mm 3 mps 757 mmHg 90%
    03:00 +28°C° 0 mm 3 mps 757 mmHg 91%
    04:00 +28°C° 0 mm 3 mps 757 mmHg 91%
    05:00 +28°C° 0 mm 3 mps 758 mmHg 91%
    06:00 +27°C° 0 mm 3 mps 758 mmHg 91%
    07:00 +29°C° 0 mm 3 mps 758 mmHg 83%
    08:00 +30°C° 0 mm 3 mps 759 mmHg 76%
    09:00 +33°C° 0 mm 3 mps 760 mmHg 68%
    10:00 +34°C° 0 mm 3 mps 759 mmHg 63%
    11:00 +35°C° 0 mm 3 mps 759 mmHg 57%
    12:00 +36°C° 0 mm 3 mps 758 mmHg 52%
    13:00 +36°C° 0 mm 3 mps 758 mmHg 52%
    14:00 +36°C° 0 mm 3 mps 757 mmHg 52%
    15:00 +36°C° 0 mm 3 mps 757 mmHg 51%
    16:00 +35°C° 0 mm 4 mps 756 mmHg 58%
    17:00 +33°C° 0 mm 4 mps 756 mmHg 64%
    18:00 +32°C° 0 mm 4 mps 756 mmHg 71%
    19:00 +30°C° 0 mm 4 mps 757 mmHg 75%
    20:00 +30°C° 0 mm 4 mps 757 mmHg 79%
    21:00 +29°C° 0 mm 4 mps 758 mmHg 83%
    22:00 +29°C° 0 mm 3 mps 758 mmHg 85%
    23:00 +28°C° 0 mm 3 mps 758 mmHg 87%

    Day after tomorrow, 19 February, Wednesday

    Time Temperature Precipitation Wind Pressure Humidity
    00:00 +28°C° 0 mm 3 mps 759 mmHg 88%
    01:00 +28°C° 0.1 mm 3 mps 758 mmHg 88%
    02:00 +28°C° 0.1 mm 2 mps 758 mmHg 88%
    03:00 +28°C° 0.1 mm 2 mps 758 mmHg 88%
    04:00 +28°C° 0.1 mm 2 mps 758 mmHg 89%
    05:00 +28°C° 0.1 mm 2 mps 758 mmHg 89%
    06:00 +28°C° 0.1 mm 2 mps 758 mmHg 89%
    07:00 +29°C° 0.1 mm 2 mps 759 mmHg 81%
    08:00 +31°C° 0.1 mm 2 mps 759 mmHg 74%
    09:00 +32°C° 0.1 mm 2 mps 760 mmHg 66%
    10:00 +32°C° 0 mm 2 mps 759 mmHg 65%
    11:00 +34°C° 0 mm 2 mps 759 mmHg 64%
    12:00 +34°C° 0 mm 2 mps 758 mmHg 63%
    13:00 +35°C° 0 mm 2 mps 758 mmHg 60%
    14:00 +35°C° 0 mm 2 mps 757 mmHg 57%
    15:00 +36°C° 0 mm 2 mps 756 mmHg 55%
    16:00 +35°C° 0 mm 2 mps 756 mmHg 58%
    17:00 +34°C° 0 mm 3 mps 756 mmHg 62%
    18:00 +33°C° 0 mm 3 mps 756 mmHg 66%
    19:00 +31°C° 0 mm 3 mps 756 mmHg 72%
    20:00 +30°C° 0 mm 4 mps 757 mmHg 78%
    21:00 +29°C° 0 mm 4 mps 758 mmHg 84%
    22:00 +29°C° 0 mm 3 mps 758 mmHg 85%
    23:00 +29°C° 0 mm 3 mps 758 mmHg 86%

    20 February, Thursday

    Time Temperature Precipitation Wind Pressure Humidity
    00:00 +28°C° 0 mm 2 mps 758 mmHg 87%
    01:00 +28°C° 0 mm 2 mps 757 mmHg 87%
    02:00 +28°C° 0 mm 2 mps 757 mmHg 88%
    03:00 +28°C° 0 mm 2 mps 757 mmHg 88%
    04:00 +28°C° 0 mm 1 mps 757 mmHg 88%
    05:00 +28°C° 0 mm 1 mps 757 mmHg 89%
    06:00 +28°C° 0 mm 1 mps 757 mmHg 90%
    07:00 +29°C° 0 mm 1 mps 758 mmHg 82%
    08:00 +31°C° 0 mm 2 mps 758 mmHg 74%
    09:00 +32°C° 0 mm 2 mps 759 mmHg 67%
    10:00 +34°C° 0 mm 2 mps 758 mmHg 65%
    11:00 +34°C° 0 mm 2 mps 758 mmHg 63%
    12:00 +35°C° 0 mm 2 mps 757 mmHg 62%
    13:00 +35°C° 0 mm 2 mps 756 mmHg 60%
    14:00 +36°C° 0 mm 2 mps 756 mmHg 58%
    15:00 +36°C° 0 mm 2 mps 755 mmHg 56%
    16:00 +35°C° 0 mm 3 mps 755 mmHg 61%
    17:00 +34°C° 0 mm 3 mps 754 mmHg 65%
    18:00 +33°C° 0 mm 4 mps 754 mmHg 69%
    19:00 +32°C° 0 mm 4 mps 755 mmHg 73%
    20:00 +30°C° 0 mm 4 mps 755 mmHg 77%
    21:00 +29°C° 0 mm 4 mps 756 mmHg 81%
    22:00 +29°C° 0 mm 3 mps 756 mmHg 83%
    23:00 +28°C° 0 mm 3 mps 756 mmHg 85%

    21 February, Friday

    Time Temperature Precipitation Wind Pressure Humidity
    00:00 +28°C° 0 mm 3 mps 757 mmHg 87%
    01:00 +28°C° 0 mm 3 mps 756 mmHg 88%
    02:00 +28°C° 0 mm 2 mps 756 mmHg 90%
    03:00 +27°C° 0 mm 2 mps 756 mmHg 91%
    04:00 +27°C° 0 mm 2 mps 756 mmHg 91%
    05:00 +27°C° 0 mm 2 mps 756 mmHg 91%
    06:00 +27°C° 0 mm 2 mps 757 mmHg 91%
    07:00 +29°C° 0 mm 2 mps 757 mmHg 82%
    08:00 +30°C° 0 mm 2 mps 758 mmHg 74%
    09:00 +32°C° 0 mm 2 mps 759 mmHg 66%
    16:00 +35°C° 0 mm 3 mps 755 mmHg 60%
    17:00 +34°C° 0 mm 4 mps 755 mmHg 65%
    18:00 +32°C° 0 mm 4 mps 755 mmHg 70%
    19:00 +32°C° 0 mm 4 mps 755 mmHg 75%
    20:00 +30°C° 0 mm 4 mps 756 mmHg 79%
    21:00 +29°C° 0 mm 4 mps 756 mmHg 84%
    22:00 +29°C° 0 mm 4 mps 757 mmHg 85%
    23:00 +29°C° 0 mm 4 mps 757 mmHg 86%

    22 February, Saturday

    Time Temperature Precipitation Wind Pressure Humidity
    00:00 +28°C° 0 mm 4 mps 757 mmHg 87%
    01:00 +28°C° 0 mm 4 mps 756 mmHg 89%
    02:00 +28°C° 0 mm 4 mps 756 mmHg 91%
    03:00 +28°C° 0 mm 3 mps 755 mmHg 92%
    04:00 +28°C° 0 mm 3 mps 756 mmHg 91%
    05:00 +28°C° 0 mm 3 mps 756 mmHg 89%
    06:00 +28°C° 0 mm 3 mps 756 mmHg 87%
    07:00 +29°C° 0 mm 3 mps 757 mmHg 82%
    08:00 +30°C° 0 mm 4 mps 757 mmHg 77%
    09:00 +32°C° 0 mm 4 mps 758 mmHg 72%
    10:00 +33°C° 0 mm 4 mps 758 mmHg 67%
    11:00 +34°C° 0 mm 3 mps 757 mmHg 63%
    12:00 +35°C° 0 mm 3 mps 757 mmHg 59%
    13:00 +36°C° 0 mm 4 mps 756 mmHg 56%
    14:00 +36°C° 0 mm 4 mps 755 mmHg 54%
    15:00 +37°C° 0 mm 4 mps 754 mmHg 52%
    16:00 +35°C° 0 mm 5 mps 754 mmHg 58%
    17:00 +34°C° 0 mm 5 mps 754 mmHg 65%
    18:00 +32°C° 0 mm 6 mps 754 mmHg 71%
    19:00 +30°C° 0 mm 5 mps 754 mmHg 75%
    20:00 +30°C° 0 mm 5 mps 755 mmHg 78%
    21:00 +29°C° 0 mm 4 mps 756 mmHg 81%
    22:00 +29°C° 0 mm 4 mps 756 mmHg 82%
    23:00 +29°C° 0 mm 4 mps 756 mmHg 83%
    Show more